Flag Weather past 2 weeks in Gaborone, Botswana

Now
84 °F

Passing clouds.


Feels Like: 81 °F
Forecast: 69 / 94 °F
Wind: 9 mph from Northwest

Location: Seretse Khama International Airport

Current Time: Nov 21, 2014 at 10:38:55 AM

Latest Report: Nov 21, 2014 at 10:00 AM


Visibility: N/A

Pressure: 30.07 "Hg

Humidity: 19%

Dew point: 37 °F

Location of GaboroneLocation

Historic Weather in Gaborone — Graph

°F

Gaborone temperature yesterday

Maximum temperature yesterday: 91 °F (at 2:00 PM)
Minimum temperature yesterday: 61 °F (at 5:00 AM)
Average temperature yesterday: 78 °F

Past Weeks' High & Low Weather Summary

 TemperatureHumidityPressure
High97 °F (Nov 14, 3:00 PM)100% (Nov 12, 8:00 PM)30.33 "Hg (Nov 12, 8:00 PM)
Low55 °F (Nov 19, 3:00 AM)9% (Nov 16, 7:00 PM)29.89 "Hg (Nov 9, 5:00 PM)
Average76 °F46%30.06 "Hg
* Reported Nov 6 9:00 AM — Nov 21 9:00 AM, Gaborone, Weather by CustomWeather, © 2014

Note: Actual official high and low records may vary slightly from our data, if they occured in-between our weather recording intervals... More about our weather records

Advertising

Gaborone weather history for previous 24 hours

 ConditionsComfort  
Time TempWeatherWind HumidityBarometerVisibility
9:00 AM
Nov 21
79 °FSunny.8 mph23%30.07 "Hg10 mi
4:00 AM66 °FClear.2 mph35%30.24 "Hg10 mi
3:00 AM72 °FClear.2 mph27%29.95 "Hg10 mi
2:00 AM75 °FClear.8 mph24%29.92 "Hg10 mi
1:00 AM70 °FClear.5 mph25%29.95 "Hg10 mi
12:00 AM72 °FClear.8 mph23%29.95 "Hg10 mi
11:00 PM
Nov 20
73 °FClear.1 mph23%29.95 "Hg10 mi
9:00 PM79 °FClear.6 mph16%29.92 "Hg10 mi
7:00 PM86 °FPassing clouds.1 mph12%29.89 "HgN/A
6:00 PM90 °FPassing clouds.3 mph10%29.89 "HgN/A
5:00 PM90 °FScattered clouds.5 mph11%29.89 "HgN/A
4:00 PM91 °FScattered clouds.7 mph10%29.89 "HgN/A
3:00 PM90 °FScattered clouds.9 mph11%29.92 "HgN/A
2:00 PM91 °FScattered clouds.12 mph11%29.92 "HgN/A
1:00 PM90 °FPassing clouds.8 mph11%29.95 "HgN/A
12:00 PM90 °FPassing clouds.13 mph13%29.98 "HgN/A
11:00 AM86 °FSunny.5 mph18%30.01 "Hg10 mi
10:00 AM82 °FPassing clouds.8 mph20%30.04 "HgN/A
Weather by CustomWeather, © 2014

See weather overviewHow to use our weather pages